Current Version              Previous Version:    01  02  03  04  05  06  07  08  09  10  11  12  13  14  15  16  17  18  19  20  21  22  23  24  25  26  27  28  29  30  
   31  32  33  34  35  36  37  38  39  40  41  42  43  44  45  46  47  48  49  50  51  52  53  54  55  56  57  58  59  60  

[Printable]
102
ASUS44 KLUB 220410
RWRTX
WEST TEXAS WEATHER ROUNDUP
NATIONAL WEATHER SERVICE LUBBOCK TX
1000 PM CST SUN DEC 21 2014

NOTE: "FAIR" INDICATES FEW OR NO CLOUDS BELOW 12,000 FEET WITH NO
SIGNIFICANT WEATHER AND/OR OBSTRUCTIONS TO VISIBILITY.

TXZ004-006>008-010-012-014-016-OKZ002-220500-
TEXAS PANHANDLE/OKLAHOMA PANHANDLE

CITY           SKY/WX    TMP DP  RH WIND       PRES   REMARKS
AMARILLO       PTCLDY    48  28  46 W10       29.59R
BORGER         CLEAR     44  28  53 SW6       29.57R
CANADIAN       CLOUDY    46  45  95 S9        29.57F
DALHART        MOCLDY    38  26  62 W8        29.60S WCI  32
DUMAS          PTCLDY    38  22  52 W7        29.58S WCI  32
GUYMON         PTCLDY    39  27  62 N3        29.55R
HEREFORD       CLEAR     43  30  59 W13       29.62R
PAMPA          PTCLDY    39  29  67 S9        29.57S WCI  33
PERRYTON       PTCLDY    38  33  81 SE8       29.55F WCI  32
$$

TXZ026-029-035-045-048-220500-
SOUTHERN PANHANDLE/SOUTH PLAINS/ROLLING PLAINS

CITY           SKY/WX    TMP DP  RH WIND       PRES   REMARKS
CHILDRESS      MOCLDY    45  35  68 S9        29.56F
SEMINOLE       MOCLDY    54  28  36 W22G30    29.72S
LUBBOCK        PTCLDY    52  28  39 W14       29.61F
PLAINVIEW      CLEAR     44  31  60 W10       29.59S
SNYDER         CLOUDY    50  30  45 S10       29.67F
$$

TXZ052-054-060>062-072-078-127-140-154-169-220500-
PERMIAN BASIN/CONCHO VALLEY/BIG COUNTRY/EDWARDS PLATEAU

CITY           SKY/WX    TMP DP  RH WIND       PRES   REMARKS
ABILENE        CLOUDY    53  43  68 S18G30    29.69S
BIG SPRING     MOCLDY    55  25  31 S9        29.73S
BRADY          PTCLDY    46  46 100 S9        29.77S
BROWNWOOD      CLOUDY    48  45  87 S8        29.76R
JUNCTION       CLOUDY    50  46  86 SW3       29.81S
MIDLAND        MOCLDY    58  26  29 W17       29.73S
ODESSA         CLOUDY    57  24  28 W14       29.75S
SAN ANGELO     CLOUDY    49  44  83 SW17      29.77R
SONORA         CLOUDY    52  48  87 SW13G18   29.85S
SWEETWATER     CLOUDY    55  41  59 S15       29.70S
WINK           PTCLDY    58  24  27 W15       29.73S
$$

TXZ055-058-074-075-080-082-220500-
FAR WEST/SOUTHWEST MOUNTAINS/TRANS PECOS

CITY           SKY/WX    TMP DP  RH WIND       PRES   REMARKS
ALPINE         CLOUDY    57  21  25 E3        29.97R
DRYDEN           N/A     47  45  93 N6        29.80R
EL PASO        MOCLDY    56  27  32 SE10G20   29.91R
FORT STOCKTON  CLOUDY    56  24  29 SW13      29.80S
MARFA          MOCLDY    52  21  30 W23       29.95F
PECOS          MOCLDY    59  26  28 SW17      29.77F
PRESIDIO       FAIR      52  28  40 CALM      29.91R
$$

TXZ014-016-019-021>030-083-220500
TEXAS TECH WEST TEXAS MESONET/TEXAS PANHANDLE/NORTHERN SOUTH PLAINS

CITY           SKY/WX    TMP DP  RH WIND       PRES   REMARKS
ABERNATHY 5ENE   N/A     50  29  44 W14       29.61F
AMARILLO 9NNE    N/A     45  27  49 SW3       29.58S
AMARILLO 7SSE    N/A     41  28  59 W8        29.60S
AMHERST 1NE      N/A     53  29  39 W22       29.62F
BOOTLEG 11WNW    N/A     49  27  41 W20       29.66R
CANADIAN 6E      N/A     43  42  97 SE9       29.56S
CAPROCK CYN SP   N/A     53  29  38 W15       29.56F
CHILDRESS 2NNE   N/A     44  36  72 SE7       29.55F
CLARENDON 2WSW   N/A     38  30  72 NE1       29.57S
CLAUDE 12SW      N/A     48  28  45 W8        29.58S
DIMMITT 2NE      N/A     46  28  50 W12       29.61S
FLOYDADA 2NNE    N/A     47  27  44 SW9       29.60S
FRIONA 2NE       N/A     49  28  42 W16       29.63R
GOODLETT 3W      N/A     48  39  71 SE8       29.55F
HART 3N          N/A     44  31  59 W14       29.60F
HEREFORD 2NW     N/A     44  27  50 W12       29.61R
MCLEAN 1E        N/A     40  40  97 E6        29.55F
MEMPHIS 1NE      N/A     42  38  86 N3        29.56S
MULESHOE 2SSW    N/A     52  28  40 W20       29.64R
OLTON 6S         N/A     51  29  42 W17       29.60F
PALO DURO SP     N/A     44  26  49 W8        29.60S
PAMPA 2E         N/A     38  31  73 SE9       29.56F WCI  32
PLAINVIEW 1S     N/A     46  31  54 W9        29.59S
SILVERTON 7ESE   N/A     43  29  58 W10       29.58S
TULIA 2ENE       N/A     41  30  66 W6        29.59F
TURKEY 2WSW      N/A     49  31  49 W10       29.56F
UMBARGER 3NNE    N/A     39  26  58 W10       29.60S WCI  32
$$

TXZ033>036-039>041-045>048-220500
TEXAS TECH WEST TEXAS MESONET/SOUTH PLAINS

CITY           SKY/WX    TMP DP  RH WIND       PRES   REMARKS
AIKEN 3WSW       N/A     40  28  61 SW6       29.61F
ANTON 6SSW       N/A     53  29  39 W18       29.62S
BROWNFIELD 2S    N/A     51  27  39 W14       29.66S
DENVR CTY 7WNW   N/A     51  24  35 W18       29.70R
GAIL 2ESE        N/A     52  28  39 SW9       29.66F
LAMESA 2SE       N/A     52  28  40 SW12      29.68F
LEVELLAND 4S     N/A     55  26  31 W25G35    29.63S
LUBBOCK 3WNW     N/A     55  27  34 W15       29.63S
MORTON 1ENE      N/A     52  27  37 W23       29.65S
ODONNELL 1N      N/A     53  26  35 SW16      29.65F
PLAINS 3N        N/A     56  27  32 W26       29.69R
RALLS 1SE        N/A     49  28  44 SW9       29.62S
REESE CENTER     N/A     54  26  34 W21       29.62S
SEAGRAVES 1SW    N/A     52  26  37 W17       29.69R
SEMINOLE 2NNE    N/A     55  26  33 W20       29.70S
SLATON 2NE       N/A     52  27  38 SW16      29.62S
SNYDER 3E        N/A     52  30  43 S10       29.66F
SUNDOWN 8SW      N/A     56  27  32 W25G35    29.66R
TAHOKA 3NNE      N/A     53  28  38 SW15      29.64R
WOLFFORTH 6SSW   N/A     56  28  33 W23       29.63S
$$

TXZ031-032-036>038-042>044-220500-
TEXAS TECH WEST TEXAS MESONET/ROLLING PLAINS

CITY           SKY/WX    TMP DP  RH WIND       PRES   REMARKS
ASPERMONT 3NE    N/A     54  32  42 S12       29.60F
FLUVANNA 3WNW    N/A     51  28  41 S10       29.65F
GRAHAM 5SSW      N/A     55  27  34 SW14      29.64F
GUTHRIE 10WSW    N/A     53  29  40 SW10      29.58F
HASKELL 1NW      N/A     55  42  61 S15       29.60F
JAYTON 1SSE      N/A     56  29  36 SW13      29.60F
KNOX CITY 3NW    N/A     54  40  59 S15       29.59F
LK A HENRY 1NW   N/A     52  30  42 SW9       29.62F
NORTHFIELD 1S    N/A     51  31  46 SW9       29.55F
ODELL 4ENE       N/A     48  44  86 SE16      29.58F
POST 1NE         N/A     57  28  33 SW13      29.62F
SEYMOUR 3NW      N/A     51  43  74 S15       29.60F
SPUR 1W          N/A     51  27  39 SW8       29.60F
WHITE RVR 6NE    N/A     51  28  41 S9        29.60F
$$

TXZ052-054-060>062-072-078-127-140-154-169-220500-
TEXAS TECH WEST TEXAS MESONET/PERMIAN BASIN/
CONCHO VALLEY/BIG COUNTRY/EDWARDS PLATEAU

CITY           SKY/WX    TMP DP  RH WIND       PRES   REMARKS
COYANOSA 2N      N/A     61  24  23 W15       29.76F
JUNCTION 1SSW    N/A     49  46  89 S6        29.82S
MERTZON 3NNE     N/A     47  44  87 S16       29.77S
SAN ANGELO 7NW   N/A     49  42  79 S12       29.75F
STRLNG CT 4WSW   N/A     50  43  76 S12       29.74S
ST LAWRNCE 5SW   N/A     55  23  29 SW12      29.75S
SWEETWATR 11SW   N/A     52  42  68 S15       29.69F
WALL 1E          N/A     48  43  81 SW15      29.77R
$$

TXZ055-058-074-075-080-082-220500-
TEXAS TECH WEST TEXAS MESONET/FAR WEST/SOUTHWEST MOUNTAINS/TRANS PECOS

CITY           SKY/WX    TMP DP  RH WIND       PRES   REMARKS
PRSMN GAP BBNP   N/A     59  27  29 S8        29.85S
$$